Other Public Products
Issued by NWS Grand Forks, ND

Home | Current Version | Previous Version | Text Only | Print | Product List | Glossary On
Versions: 1 2 3 4 5 6 7 8 9 10 11 12 13 14 15 16 17 18 19 20 21 22 23 24 25 26 27 28 29 30 31 32 33 34 35 36 37 38 39 40 41 42 43 44 45 46 47 48 49 50
000
FPUS83 KFGF 311931
OPUFGF
PRAIRIE TO PINES WEATHER ROUNDUP
NATIONAL WEATHER SERVICE EASTERN NORTH DAKOTA/GRAND FORKS ND
200 PM CDT THU JUL 31 2014

 **SATELLITE DATA USED TO AUGMENT SKY COVER AT AUTOMATED STATIONS**
 *****  WEATHER ACROSS EASTERN NORTH DAKOTA  *****

CITY           SKY/WX    TMP DP  RH WIND       PRES   REMARKS
GRAND FORKS    MOSUNNY   79  64  61 NW5       30.01F
GRAND FORKS AF SUNNY     81  60  48 VRB5      30.02F
GRAND CITY NWS   N/A     81 N/A N/A N5          N/A
BUXTON           N/A     85  60  42 N6          N/A
DEVILS LAKE    MOSUNNY   79  57  47 N5        30.05S
FARGO          MOSUNNY   83  58  42 N9        30.02S
WAHPETON ARPT  MOCLDY    79  50  36 N6        30.04S
$$

 *****  WEATHER ACROSS CENTRAL AND WESTERN NORTH DAKOTA  *****

CITY           SKY/WX    TMP DP  RH WIND       PRES   REMARKS
JAMESTOWN      MOSUNNY   81  55  40 NE5       30.06S
BISMARCK       SUNNY     84  54  35 VRB5      30.08S
MINOT          SUNNY     81  52  36 CALM      30.08S
MINOT AFB      SUNNY     79  56  45 SW6       30.07F
GARRISON         N/A     79  58  48 S5        30.09S
WILLISTON      PTSUNNY   78  61  55 S6        30.07F
DICKINSON      SUNNY     82  53  36 VRB5      30.08F
HETTINGER      MOSUNNY   83  50  31 CALM      30.11F
$$

 *****  OTHER OBSERVATIONS NORTHEAST NORTH DAKOTA  *****

CITY           SKY/WX    TMP DP  RH WIND       PRES   REMARKS
WALHALLA       FAIR      75  64  69 W5          N/A
LANGDON        FAIR      82  55  39 NW8       30.06R
CAVALIER       FAIR      81  59  47 N5        30.02S
GRAFTON        FAIR      81  59  47 N7        30.01S
CANDO          FAIR      79  55  44 NW5       30.06S
FORT TOTTEN      N/A     81  64  55 N3        29.95S
ROLLA            N/A     77  55  47 NE5       30.09S
RUGBY          FAIR      79  59  50 N3        30.07R
 ***** THE ABOVE OBSERVATIONS ARE NON NWS ARE NOT QUALITY
        CONTROLLED AND MAY MIS-REPORT RAIN FOR SNOW...
$$

 *****  OTHER OBSERVATIONS SOUTHEAST NORTH DAKOTA *****

CITY           SKY/WX    TMP DP  RH WIND       PRES   REMARKS
COOPERSTOWN    NOT AVBL
VALLEY CITY    FAIR      81  55  41 NW6       30.06S
OAKES          NOT AVBL
GWINNER        PTCLDY    81  57  44 N5        30.07S
SHEYENNE NWR     N/A     83  58  41 NW5       29.95S
BUFFALO          N/A     82  52  34 NW5         N/A
WYNDMERE       NOT AVBL
 ***** THE ABOVE OBSERVATIONS ARE NON NWS ARE NOT QUALITY
       CONTROLLED AND MAY MIS-REPORT RAIN FOR SNOW...
$$

  *****  WEATHER ACROSS NORTHERN MINNESOTA  *****

CITY           SKY/WX    TMP DP  RH WIND       PRES   REMARKS
FLAG ISLAND    SUNNY     75  52  43 N3        29.99S
WARROAD        SUNNY     79  61  53 E5        30.01S
ROSEAU           N/A     81  57  44 CALM      30.01S
HALLOCK          N/A     81  57  44 CALM      30.00F
THF RVR FALLS  SUNNY     79  57  47 NW7       30.02S
HALSTAD          N/A     83  57  41 NE6         N/A
FOSSTON        MOSUNNY   79  63  57 NW7       30.03S
BAUDETTE       SUNNY     78  53  41 N8        30.01F
WASKISH        SUNNY     77  63  61 SW7       30.00F
CROOKSTON      SUNNY     79  63  57 N7        30.02S
$$
  *****  WEATHER ACROSS CENTRAL AND WEST MINNESOTA  *****

CITY           SKY/WX    TMP DP  RH WIND       PRES   REMARKS
BEMIDJI        PTSUNNY   78  56  47 N9        30.01F
PARK RAPIDS    MOSUNNY   81  57  43 NW13      30.02F
WADENA         MOSUNNY   79  59  50 NW7       30.03S
DETROIT LAKES  MOSUNNY   79  57  47 NW14      30.05S
MOORHEAD       MOSUNNY   81  63  54 NE8       30.03S
FERGUS FALLS   SUNNY     79  54  41 W6        30.03S
ELBOW LAKE     FAIR      77  58  52 W3        30.04S
MORRIS MN      SUNNY     81  59  47 NW3       30.04S
STAPLES        MOSUNNY   79  55  44 W7        30.02F
WHEATON        MOSUNNY   79  57  47 W5        30.06S
$$
  *****  WEATHER ELSEWHERE ACROSS MINNESOTA  *****

CITY           SKY/WX    TMP DP  RH WIND       PRES   REMARKS
DULUTH         MOSUNNY   78  54  43 NW8       29.98F
INTRNTL FALLS  SUNNY     77  55  46 N7        29.99S
ELY            SUNNY     73  48  40 NW10G17   29.98S
CLOQUET        PTSUNNY   79  55  44 NW10      29.98F
BRAINERD       MOSUNNY   79  57  46 W10       30.01F
HIBBING        SUNNY     79  53  40 N10       29.99S
ALEXANDRIA     SUNNY     78  55  44 VRB7      30.06S
SAINT CLOUD    MOSUNNY   84  54  35 VRB6      30.02F
MINNEAPOLIS    PTSUNNY   81  52  36 W10       30.02S
$$

  *****  WEATHER ACROSS SOUTH DAKOTA  *****

CITY           SKY/WX    TMP DP  RH WIND       PRES   REMARKS
SIOUX FALLS    PTSUNNY   77  59  53 NW6       30.07S
BROOKINGS      NOT AVBL
WATERTOWN      PTSUNNY   78  52  40 VRB3      30.07F
HURON          PTSUNNY   81  52  36 VRB3      30.06S
SISSETON         N/A     81  58  45 N7        30.04S
ABERDEEN       MOSUNNY   79  53  40 NE7       30.06F
MITCHELL       PTSUNNY   78  63  59 CALM      30.08S
PIERRE         SUNNY     82  54  37 MISG      30.05F
MOBRIDGE         N/A     83  58  42 VRB3      30.05S
RAPID CITY     SUNNY     81  50  33 VRB3      30.16F
$$

  *****  SOME WEATHER IN NEARBY STATES *****

CITY           SKY/WX    TMP DP  RH WIND       PRES   REMARKS
GLASGOW MT     SUNNY     94  42  16 S8        29.99F HX  90
GREAT FALLS MT SUNNY     91  39  16 N8        30.11F
CHEYENNE WY    MOSUNNY   74  43  32 VRB5      30.32F
SCOTTSBLUFF NE SUNNY     84  51  31 VRB6      30.20F
OMAHA NE       PTSUNNY   81  55  40 S8        30.08S
DES MOINES IA  MOSUNNY   82  55  39 W6        30.07F
DAVENPORT IA   SUNNY     79  60  52 NW8       30.07F
CHICAGO IL     MOSUNNY   84  54  35 W14       30.03S
EAU CLAIRE WI  MOSUNNY   81  57  43 W10G21    30.00S
LA CROSSE WI   MOSUNNY   82  58  43 W10       30.02S
$$

  *****  SOME NATIONAL WEATHER *****

CITY           SKY/WX    TMP DP  RH WIND       PRES   REMARKS
LA GUARDIA NY  PTSUNNY   81  58  45 S17       30.08R
RALEIGH NC     CLOUDY    80  65  59 SE7       30.14S
ATLANTA GA     PTSUNNY   83  66  56 NE5       30.05F
NEW ORLEANS LA PTSUNNY   86  64  47 NE10      30.03F
OKLAHOMA CITY  CLOUDY    73  65  75 N14       30.09S
ALBUQUERQUE NM MOSUNNY   76  57  51 VRB3      30.26F
SALT LAKE CITY MOSUNNY   81  52  36 W8        30.17F
LOS ANGELES CA MOSUNNY   77  62  59 W10       29.93F
BOISE ID       SUNNY     89  47  23 CALM      30.11F
SEATTLE WA     MOSUNNY   78  54  43 N8        30.11F
$$

*** WEATHER ACROSS MANITOBA...SASKATCHEWAN AND ONTARIO ***
                ***ONTARIO***

CITY           SKY/WX    TMP DP  RH WIND       PRES   REMARKS
GERALDTON      CLOUDY    57  52  82 NW6       29.91R
THUNDER BAY    PTSUNNY   75  50  41 NW10G20   29.91S
SIOUX LOOKOUT  PTSUNNY   72  52  49 NW10      29.98S
TORONTO        PTSUNNY   75  52  43 W12G21    30.00R
BIG TROUT LK   CLOUDY    66  50  55 N9G21     29.96F
PICKLE LAKE    CLOUDY    64  50  59 VRB7      29.97S
DRYDEN         NOT AVBL
KENORA         PTSUNNY   75  50  41 NW7       30.02
$$
                *** MANITOBA***

CITY           SKY/WX    TMP DP  RH WIND       PRES   REMARKS
BRANDON        PTSUNNY   81  57  44 N10       30.06S
DAUPHIN        SUNNY     81  59  47 CALM      30.05S
ISLAND LAKE    MOSUNNY   72  50  46 NW3       30.06
PILOT MOUND      N/A     79  61  53 NW7         N/A
THE PAS        PTSUNNY  N/A N/A N/A W8          N/A
THOMPSON       PTSUNNY   77  55  47 S5        30.05S
WINNIPEG       MOSUNNY   81  54  39 CALM      30.02S
LYNN LAKE      SUNNY     84  54  34 S6        30.01S
CHURCHILL      MOSUNNY   68  54  60 E10       30.07F
GILLAM         CLOUDY    72  46  40 N3        30.07F
$$
                ***SASKATCHEWAN***

CITY           SKY/WX    TMP DP  RH WIND       PRES   REMARKS
ESTEVAN        MOSUNNY   79  59  50 SE8       30.08F
KINDERSLEY     PTSUNNY   79  64  61 N6        30.07R
LLOYDMINSTER   PTSUNNY   79  61  53 E7        30.10R
PRINCE ALBERT  MOSUNNY   81  61  50 SE6       30.07S
REGINA         MOSUNNY   81  61  50 SE15      30.04F


USA.gov is the U.S. government's official web portal to all federal, state and local government web resources and services.